| time (UTC) | temp F | wind direction | speed knots | gust knots | rain 1hr in | rain 24hr in | rain mn in | humidity % | barometer mb |
| 20260507085316 | 36 | 281 | 0.0 | 0.0 | 0.00 | 0.00 | 0.00 | 74 | 1014.9 |
| 20260507084829 | 36 | 281 | 0.0 | 0.0 | 0.00 | 0.00 | 0.00 | 73 | 1015.0 |
| 20260507084513 | 36 | 281 | 0.0 | 0.0 | 0.00 | 0.00 | 0.00 | 73 | 1015.3 |
| 20260507084322 | 36 | 281 | 0.0 | 0.0 | 0.00 | 0.00 | 0.00 | 73 | 1015.0 |
| 20260507083827 | 37 | 281 | 0.0 | 0.0 | 0.00 | 0.00 | 0.00 | 73 | 1015.1 |
| 20260507083331 | 37 | 281 | 0.0 | 0.0 | 0.00 | 0.00 | 0.00 | 72 | 1015.1 |
| 20260507083027 | 36 | 281 | 0.0 | 0.0 | 0.00 | 0.00 | 0.00 | 72 | 1015.3 |
| 20260507082823 | 37 | 281 | 0.0 | 0.0 | 0.00 | 0.00 | 0.00 | 72 | 1015.0 |
| 20260507082328 | 37 | 281 | 0.0 | 0.0 | 0.00 | 0.00 | 0.00 | 72 | 1014.9 |
| 20260507081840 | 37 | 281 | 0.0 | 0.0 | 0.00 | 0.00 | 0.00 | 72 | 1015.0 |
| 20260507081530 | 36 | 281 | 0.0 | 0.0 | 0.00 | 0.00 | 0.00 | 72 | 1015.2 |
| 20260507081323 | 37 | 281 | 0.0 | 0.0 | 0.00 | 0.00 | 0.00 | 71 | 1014.9 |
| 20260507080833 | 37 | 281 | 0.0 | 0.0 | 0.00 | 0.00 | 0.00 | 71 | 1014.9 |
| 20260507080322 | 37 | 281 | 0.0 | 1.7 | 0.00 | 0.00 | 0.00 | 71 | 1014.9 |
| 20260507080039 | 37 | 281 | 0.0 | 1.7 | 0.00 | 0.00 | 0.00 | 71 | 1015.2 |
| 20260507075827 | 37 | 281 | 0.9 | 1.7 | 0.00 | 0.00 | 0.00 | 71 | 1014.8 |
| 20260507075334 | 38 | 281 | 0.9 | 1.7 | 0.00 | 0.00 | 0.00 | 71 | 1014.8 |
| 20260507074839 | 38 | 280 | 0.9 | 1.7 | 0.00 | 0.00 | 0.00 | 71 | 1014.8 |
| 20260507074553 | 37 | 281 | 0.0 | 1.7 | 0.00 | 0.00 | 0.00 | 71 | 1015.1 |
| 20260507074350 | 38 | 281 | 0.0 | 0.0 | 0.00 | 0.00 | 0.00 | 71 | 1014.8 |
| 20260507073822 | 38 | 281 | 0.0 | 0.0 | 0.00 | 0.00 | 0.00 | 71 | 1014.9 |
| 20260507073329 | 38 | 280 | 0.0 | 0.0 | 0.00 | 0.00 | 0.00 | 71 | 1014.9 |
| 20260507073035 | 37 | 273 | 0.0 | 0.0 | 0.00 | 0.00 | 0.00 | 71 | 1015.2 |
| 20260507072841 | 38 | 271 | 0.0 | 0.0 | 0.00 | 0.00 | 0.00 | 70 | 1014.9 |
| 20260507072347 | 38 | 270 | 0.0 | 2.6 | 0.00 | 0.00 | 0.00 | 70 | 1014.9 |
| 20260507071830 | 38 | 360 | 1.7 | 2.6 | 0.00 | 0.00 | 0.00 | 70 | 1015.0 |
| 20260507071527 | 37 | 269 | 0.9 | 2.6 | 0.00 | 0.00 | 0.00 | 71 | 1015.3 |
| 20260507071334 | 38 | 270 | 0.9 | 2.6 | 0.00 | 0.00 | 0.00 | 70 | 1015.1 |
| 20260507070820 | 38 | 268 | 0.9 | 2.6 | 0.00 | 0.00 | 0.00 | 70 | 1015.1 |
| 20260507070325 | 38 | 268 | 1.7 | 3.5 | 0.00 | 0.00 | 0.00 | 70 | 1015.1 |
| 20260507070037 | 38 | 266 | 0.9 | 3.5 | 0.00 | 0.00 | 0.00 | 70 | 1015.5 |
| 20260507065833 | 38 | 267 | 1.7 | 3.5 | 0.00 | 0.00 | 0.00 | 70 | 1015.3 |
| 20260507065325 | 38 | 266 | 1.7 | 3.5 | 0.00 | 0.00 | 0.00 | 69 | 1015.2 |
| 20260507064830 | 38 | 360 | 1.7 | 2.6 | 0.00 | 0.00 | 0.00 | 69 | 1015.2 |
| 20260507064616 | 38 | 264 | 0.9 | 2.6 | 0.00 | 0.00 | 0.00 | 69 | 1015.5 |
| 20260507064316 | 38 | 360 | 1.7 | 2.6 | 0.00 | 0.00 | 0.00 | 69 | 1015.2 |
| 20260507063818 | 39 | 263 | 1.7 | 2.6 | 0.00 | 0.00 | 0.00 | 69 | 1015.2 |
| 20260507063326 | 39 | 265 | 1.7 | 2.6 | 0.00 | 0.00 | 0.00 | 68 | 1015.3 |
| 20260507063004 | 38 | 265 | 0.9 | 2.6 | 0.00 | 0.00 | 0.00 | 68 | 1015.5 |
| 20260507062833 | 39 | 265 | 1.7 | 2.6 | 0.00 | 0.00 | 0.00 | 68 | 1015.3 |
| 20260507062316 | 39 | 276 | 0.0 | 0.0 | 0.00 | 0.00 | 0.00 | 69 | 1015.3 |
| 20260507061825 | 39 | 274 | 0.0 | 0.0 | 0.00 | 0.00 | 0.00 | 68 | 1015.3 |
| 20260507061513 | 38 | 275 | 0.0 | 0.0 | 0.00 | 0.00 | 0.00 | 68 | 1015.6 |
| 20260507061334 | 39 | 275 | 0.0 | 0.0 | 0.00 | 0.00 | 0.00 | 68 | 1015.3 |
| 20260507060822 | 39 | 275 | 0.0 | 0.0 | 0.00 | 0.00 | 0.00 | 67 | 1015.3 |
| 20260507060329 | 39 | 276 | 0.0 | 0.0 | 0.00 | 0.00 | 0.00 | 67 | 1015.3 |
| 20260507060031 | 38 | 275 | 0.0 | 0.0 | 0.00 | 0.00 | 0.00 | 67 | 1015.6 |
| 20260507055825 | 39 | 275 | 0.0 | 0.0 | 0.00 | 0.00 | 0.00 | 67 | 1015.4 |
| 20260507055328 | 39 | 275 | 0.0 | 0.0 | 0.00 | 0.00 | 0.00 | 67 | 1015.4 |
| 20260507054817 | 39 | 276 | 0.0 | 0.0 | 0.00 | 0.00 | 0.00 | 66 | 1015.4 |
| 20260507054542 | 39 | 276 | 0.0 | 0.0 | 0.00 | 0.00 | 0.00 | 66 | 1015.6 |
| 20260507054332 | 39 | 276 | 0.0 | 0.0 | 0.00 | 0.00 | 0.00 | 66 | 1015.3 |
| 20260507053330 | 40 | 276 | 0.0 | 0.0 | 0.00 | 0.00 | 0.00 | 65 | 1015.3 |
| 20260507053008 | 39 | 276 | 0.0 | 0.0 | 0.00 | 0.00 | 0.00 | 64 | 1015.6 |
| 20260507052822 | 40 | 276 | 0.0 | 0.0 | 0.00 | 0.00 | 0.00 | 64 | 1015.4 |
| 20260507052338 | 40 | 276 | 0.0 | 0.0 | 0.00 | 0.00 | 0.00 | 63 | 1015.4 |
| 20260507051828 | 40 | 276 | 0.0 | 0.0 | 0.00 | 0.00 | 0.00 | 63 | 1015.4 |
| 20260507051503 | 40 | 276 | 0.0 | 0.0 | 0.00 | 0.00 | 0.00 | 62 | 1015.6 |
| 20260507051328 | 40 | 276 | 0.0 | 0.0 | 0.00 | 0.00 | 0.00 | 62 | 1015.4 |
| 20260507050819 | 41 | 276 | 0.0 | 0.0 | 0.00 | 0.00 | 0.00 | 62 | 1015.4 |
| 20260507050325 | 41 | 276 | 0.0 | 0.0 | 0.00 | 0.00 | 0.00 | 62 | 1015.4 |
| 20260507050025 | 41 | 276 | 0.0 | 0.0 | 0.00 | 0.00 | 0.00 | 62 | 1015.7 |
| 20260507045825 | 41 | 276 | 0.0 | 0.0 | 0.00 | 0.00 | 0.00 | 61 | 1015.5 |
| 20260507045319 | 41 | 276 | 0.0 | 0.0 | 0.00 | 0.00 | 0.00 | 61 | 1015.4 |
| 20260507044826 | 42 | 276 | 0.0 | 0.0 | 0.00 | 0.00 | 0.00 | 60 | 1015.4 |
| 20260507044539 | 41 | 276 | 0.0 | 0.0 | 0.00 | 0.00 | 0.00 | 60 | 1015.6 |
| 20260507044318 | 42 | 276 | 0.0 | 0.0 | 0.00 | 0.00 | 0.00 | 60 | 1015.3 |
| 20260507043820 | 42 | 276 | 0.0 | 2.6 | 0.00 | 0.00 | 0.00 | 59 | 1015.4 |
| 20260507043326 | 43 | 277 | 0.9 | 2.6 | 0.00 | 0.00 | 0.00 | 58 | 1015.4 |
| 20260507043033 | 42 | 277 | 0.9 | 1.7 | 0.00 | 0.00 | 0.00 | 58 | 1015.6 |
| 20260507042830 | 43 | 276 | 1.7 | 1.7 | 0.00 | 0.00 | 0.00 | 57 | 1015.3 |
| 20260507042403 | 43 | 277 | 0.9 | 2.6 | 0.00 | 0.00 | 0.00 | 56 | 1015.3 |
| 20260507041845 | 44 | 277 | 0.9 | 2.6 | 0.00 | 0.00 | 0.00 | 56 | 1015.3 |
| 20260507041518 | 43 | 277 | 0.9 | 2.6 | 0.00 | 0.00 | 0.00 | 55 | 1015.6 |
| 20260507041331 | 44 | 277 | 0.9 | 2.6 | 0.00 | 0.00 | 0.00 | 55 | 1015.4 |
| 20260507040817 | 44 | 275 | 0.9 | 3.5 | 0.00 | 0.00 | 0.00 | 55 | 1015.4 |
| 20260507040326 | 44 | 360 | 0.9 | 3.5 | 0.00 | 0.00 | 0.00 | 55 | 1015.3 |
| 20260507040028 | 44 | 360 | 0.9 | 2.6 | 0.00 | 0.00 | 0.00 | 55 | 1015.5 |
| 20260507035835 | 44 | 281 | 0.9 | 2.6 | 0.00 | 0.00 | 0.00 | 54 | 1015.3 |
| 20260507035331 | 45 | 294 | 0.9 | 3.5 | 0.00 | 0.00 | 0.00 | 54 | 1015.3 |
| 20260507034821 | 45 | 294 | 0.9 | 3.5 | 0.00 | 0.00 | 0.00 | 53 | 1015.3 |
| 20260507034557 | 45 | 293 | 0.9 | 3.5 | 0.00 | 0.00 | 0.00 | 53 | 1015.5 |
| 20260507034323 | 45 | 296 | 1.7 | 3.5 | 0.00 | 0.00 | 0.00 | 53 | 1015.3 |
| 20260507033818 | 45 | 290 | 0.9 | 3.5 | 0.00 | 0.00 | 0.00 | 53 | 1015.3 |
| 20260507033352 | 45 | 288 | 2.6 | 3.5 | 0.00 | 0.00 | 0.00 | 52 | 1015.4 |
| 20260507033047 | 45 | 281 | 0.9 | 3.5 | 0.00 | 0.00 | 0.00 | 51 | 1015.6 |
| 20260507032902 | 46 | 278 | 1.7 | 3.5 | 0.00 | 0.00 | 0.00 | 51 | 1015.4 |
| 20260507032347 | 46 | 287 | 0.9 | 3.5 | 0.00 | 0.00 | 0.00 | 51 | 1015.4 |
| 20260507031828 | 46 | 284 | 2.6 | 4.3 | 0.00 | 0.00 | 0.00 | 51 | 1015.4 |
| 20260507031514 | 46 | 290 | 0.9 | 4.3 | 0.00 | 0.00 | 0.00 | 51 | 1015.6 |
| 20260507031338 | 46 | 271 | 1.7 | 4.3 | 0.00 | 0.00 | 0.00 | 50 | 1015.4 |
| 20260507030817 | 46 | 270 | 1.7 | 4.3 | 0.00 | 0.00 | 0.00 | 50 | 1015.4 |
| 20260507030457 | 47 | 277 | 2.6 | 4.3 | 0.00 | 0.00 | 0.00 | 49 | 1015.3 |
| 20260507030023 | 46 | 294 | 1.7 | 5.2 | 0.00 | 0.00 | 0.00 | 49 | 1015.5 |
| 20260507025823 | 47 | 307 | 2.6 | 5.2 | 0.00 | 0.00 | 0.00 | 49 | 1015.4 |
| 20260507025329 | 47 | 279 | 1.7 | 3.5 | 0.00 | 0.00 | 0.00 | 49 | 1015.2 |
| 20260507024818 | 47 | 311 | 2.6 | 5.2 | 0.00 | 0.00 | 0.00 | 49 | 1015.3 |
| 20260507024537 | 47 | 299 | 0.9 | 5.2 | 0.00 | 0.00 | 0.00 | 48 | 1015.4 |
| 20260507024323 | 47 | 318 | 1.7 | 5.2 | 0.00 | 0.00 | 0.00 | 48 | 1015.3 |
| 20260507023824 | 48 | 283 | 2.6 | 6.1 | 0.00 | 0.00 | 0.00 | 48 | 1015.2 |
| 20260507023358 | 48 | 308 | 2.6 | 7.0 | 0.00 | 0.00 | 0.00 | 47 | 1015.1 |
| 20260507023032 | 47 | 360 | 2.6 | 7.0 | 0.00 | 0.00 | 0.00 | 47 | 1015.3 |
| 20260507022827 | 48 | 303 | 2.6 | 7.0 | 0.00 | 0.00 | 0.00 | 47 | 1015.0 |
| 20260507022339 | 48 | 275 | 1.7 | 5.2 | 0.00 | 0.00 | 0.00 | 47 | 1015.0 |
| 20260507021843 | 48 | 296 | 2.6 | 5.2 | 0.00 | 0.00 | 0.00 | 46 | 1014.8 |
| 20260507021524 | 48 | 284 | 2.6 | 6.1 | 0.00 | 0.00 | 0.00 | 46 | 1014.9 |
| 20260507021331 | 48 | 313 | 2.6 | 6.1 | 0.00 | 0.00 | 0.00 | 46 | 1014.7 |
| 20260507020820 | 48 | 281 | 3.5 | 7.0 | 0.00 | 0.00 | 0.00 | 46 | 1014.7 |
| 20260507020331 | 48 | 303 | 2.6 | 7.0 | 0.00 | 0.00 | 0.00 | 45 | 1014.6 |
| 20260507020049 | 48 | 281 | 3.5 | 9.6 | 0.00 | 0.00 | 0.00 | 45 | 1014.8 |
| 20260507015817 | 49 | 313 | 4.3 | 9.6 | 0.00 | 0.00 | 0.00 | 46 | 1014.6 |
| 20260507015321 | 49 | 325 | 5.2 | 9.6 | 0.00 | 0.00 | 0.00 | 45 | 1014.5 |
| 20260507014827 | 49 | 279 | 3.5 | 8.7 | 0.00 | 0.00 | 0.00 | 45 | 1014.4 |
| 20260507014607 | 49 | 277 | 4.3 | 9.6 | 0.00 | 0.00 | 0.00 | 45 | 1014.6 |
| 20260507014317 | 49 | 286 | 3.5 | 9.6 | 0.00 | 0.00 | 0.00 | 45 | 1014.4 |
| 20260507013820 | 49 | 263 | 3.5 | 7.0 | 0.00 | 0.00 | 0.00 | 45 | 1014.5 |
| 20260507013319 | 49 | 327 | 4.3 | 7.0 | 0.00 | 0.00 | 0.00 | 44 | 1014.4 |
| 20260507013034 | 49 | 265 | 2.6 | 8.7 | 0.00 | 0.00 | 0.00 | 44 | 1014.6 |
| 20260507012835 | 50 | 290 | 2.6 | 8.7 | 0.00 | 0.00 | 0.00 | 44 | 1014.4 |
| 20260507012345 | 50 | 299 | 4.3 | 10.4 | 0.00 | 0.00 | 0.00 | 44 | 1014.4 |
| 20260507011835 | 50 | 265 | 5.2 | 11.3 | 0.00 | 0.00 | 0.00 | 44 | 1014.4 |
| 20260507011529 | 49 | 261 | 5.2 | 11.3 | 0.00 | 0.00 | 0.00 | 44 | 1014.6 |
| 20260507011319 | 50 | 360 | 6.1 | 12.2 | 0.00 | 0.00 | 0.00 | 44 | 1014.4 |
| 20260507010832 | 50 | 285 | 6.1 | 12.2 | 0.00 | 0.00 | 0.00 | 43 | 1014.3 |
| 20260507010323 | 50 | 275 | 4.3 | 7.8 | 0.00 | 0.00 | 0.00 | 43 | 1014.3 |
| 20260507010015 | 50 | 265 | 4.3 | 11.3 | 0.00 | 0.00 | 0.00 | 43 | 1014.3 |
| 20260507005826 | 51 | 268 | 3.5 | 11.3 | 0.00 | 0.00 | 0.00 | 43 | 1014.2 |
| 20260507005320 | 51 | 283 | 6.1 | 13.0 | 0.00 | 0.00 | 0.00 | 43 | 1014.2 |
| 20260507004825 | 51 | 259 | 7.0 | 13.0 | 0.00 | 0.00 | 0.00 | 43 | 1014.2 |
| 20260507004533 | 51 | 317 | 5.2 | 9.6 | 0.00 | 0.00 | 0.00 | 43 | 1014.3 |
| 20260507004321 | 51 | 309 | 5.2 | 9.6 | 0.00 | 0.00 | 0.00 | 43 | 1014.2 |
| 20260507003831 | 51 | 252 | 7.0 | 13.9 | 0.00 | 0.00 | 0.00 | 42 | 1014.1 |
| 20260507003336 | 52 | 290 | 7.8 | 16.5 | 0.00 | 0.00 | 0.00 | 42 | 1014.2 |
| 20260507003050 | 51 | 285 | 10.4 | 16.5 | 0.00 | 0.00 | 0.00 | 42 | 1014.2 |
| 20260507002844 | 52 | 360 | 6.1 | 16.5 | 0.00 | 0.00 | 0.00 | 42 | 1014.1 |
| 20260507002328 | 52 | 360 | 8.7 | 16.5 | 0.00 | 0.00 | 0.00 | 41 | 1014.0 |
| 20260507001832 | 52 | 283 | 7.8 | 16.5 | 0.00 | 0.00 | 0.00 | 41 | 1014.0 |
| 20260507001539 | 52 | 360 | 8.7 | 16.5 | 0.00 | 0.00 | 0.00 | 41 | 1014.0 |
| 20260507001340 | 53 | 280 | 10.4 | 16.5 | 0.00 | 0.00 | 0.00 | 41 | 1013.8 |
| 20260507000829 | 53 | 325 | 7.8 | 16.5 | 0.00 | 0.00 | 0.00 | 41 | 1013.8 |
| 20260507000405 | 53 | 316 | 8.7 | 16.5 | 0.00 | 0.00 | 0.00 | 41 | 1013.7 |
| 20260507000019 | 53 | 294 | 5.2 | 16.5 | 0.00 | 0.00 | 0.00 | 41 | 1013.8 |
| 20260506235845 | 53 | 246 | 9.6 | 16.5 | 0.00 | 0.00 | 0.00 | 41 | 1013.6 |
| 20260506235329 | 53 | 288 | 8.7 | 16.5 | 0.00 | 0.00 | 0.00 | 40 | 1013.6 |
| 20260506234838 | 54 | 257 | 8.7 | 14.8 | 0.00 | 0.00 | 0.00 | 40 | 1013.5 |
| 20260506234538 | 53 | 298 | 6.1 | 14.8 | 0.00 | 0.00 | 0.00 | 40 | 1013.5 |
| 20260506234352 | 54 | 285 | 6.1 | 14.8 | 0.00 | 0.00 | 0.00 | 40 | 1013.4 |
| 20260506233818 | 54 | 360 | 7.0 | 13.0 | 0.00 | 0.00 | 0.00 | 41 | 1013.4 |
| 20260506233357 | 54 | 292 | 7.0 | 13.0 | 0.00 | 0.00 | 0.00 | 41 | 1013.4 |
| 20260506233011 | 53 | 324 | 4.3 | 14.8 | 0.00 | 0.00 | 0.00 | 41 | 1013.5 |
| 20260506232835 | 53 | 300 | 7.0 | 14.8 | 0.00 | 0.00 | 0.00 | 41 | 1013.3 |
| 20260506232323 | 54 | 307 | 6.1 | 13.9 | 0.00 | 0.00 | 0.00 | 40 | 1013.3 |
| 20260506231833 | 54 | 295 | 7.0 | 19.1 | 0.00 | 0.00 | 0.00 | 40 | 1013.2 |
| 20260506231528 | 53 | 256 | 7.0 | 19.1 | 0.00 | 0.00 | 0.00 | 40 | 1013.5 |
| 20260506231342 | 54 | 263 | 8.7 | 19.1 | 0.00 | 0.00 | 0.00 | 40 | 1013.2 |
| 20260506230831 | 54 | 311 | 5.2 | 12.2 | 0.00 | 0.00 | 0.00 | 40 | 1013.1 |
| 20260506230339 | 54 | 239 | 7.0 | 16.5 | 0.00 | 0.00 | 0.00 | 40 | 1013.0 |
| 20260506230058 | 54 | 276 | 7.8 | 16.5 | 0.00 | 0.00 | 0.00 | 40 | 1013.1 |
| 20260506225824 | 54 | 360 | 9.6 | 16.5 | 0.00 | 0.00 | 0.00 | 40 | 1012.9 |
| 20260506225352 | 54 | 360 | 7.8 | 13.9 | 0.00 | 0.00 | 0.00 | 40 | 1013.0 |
| 20260506224825 | 54 | 267 | 7.0 | 15.6 | 0.00 | 0.00 | 0.00 | 40 | 1013.0 |
| 20260506224323 | 54 | 269 | 7.8 | 15.6 | 0.00 | 0.00 | 0.00 | 40 | 1013.0 |
| 20260506223856 | 54 | 300 | 9.6 | 17.4 | 0.00 | 0.00 | 0.00 | 40 | 1013.0 |
| 20260506223328 | 54 | 291 | 7.8 | 15.6 | 0.00 | 0.00 | 0.00 | 39 | 1012.9 |
| 20260506222821 | 54 | 310 | 10.4 | 16.5 | 0.00 | 0.00 | 0.00 | 39 | 1012.9 |
| 20260506222353 | 55 | 279 | 7.8 | 18.2 | 0.00 | 0.00 | 0.00 | 39 | 1012.9 |
| 20260506221844 | 55 | 270 | 11.3 | 18.2 | 0.00 | 0.00 | 0.00 | 38 | 1012.8 |
| 20260506221335 | 55 | 281 | 7.8 | 15.6 | 0.00 | 0.00 | 0.00 | 39 | 1012.7 |
| 20260506220847 | 55 | 296 | 8.7 | 15.6 | 0.00 | 0.00 | 0.00 | 39 | 1012.6 |
| 20260506220322 | 55 | 281 | 8.7 | 16.5 | 0.00 | 0.00 | 0.00 | 39 | 1012.6 |
| 20260506215832 | 56 | 303 | 9.6 | 16.5 | 0.00 | 0.00 | 0.00 | 38 | 1012.5 |
| 20260506215347 | 57 | 292 | 8.7 | 13.0 | 0.00 | 0.00 | 0.00 | 39 | 1012.3 |
| 20260506214822 | 56 | 273 | 6.1 | 17.4 | 0.00 | 0.00 | 0.00 | 40 | 1011.2 |
| 20260506214333 | 55 | 292 | 8.7 | 17.4 | 0.00 | 0.00 | 0.00 | 39 | 1012.3 |
| 20260506213845 | 56 | 280 | 8.7 | 19.1 | 0.00 | 0.00 | 0.00 | 39 | 1012.4 |
| 20260506213337 | 56 | 360 | 7.0 | 17.4 | 0.00 | 0.00 | 0.00 | 39 | 1011.7 |
| 20260506212827 | 55 | 360 | 5.2 | 20.0 | 0.00 | 0.00 | 0.00 | 39 | 1012.5 |
| 20260506212319 | 56 | 245 | 10.4 | 20.9 | 0.00 | 0.00 | 0.00 | 38 | 1012.4 |
| 20260506211851 | 56 | 241 | 10.4 | 20.9 | 0.00 | 0.00 | 0.00 | 38 | 1011.0 |
| 20260506211322 | 56 | 263 | 7.0 | 13.9 | 0.00 | 0.00 | 0.00 | 39 | 1012.2 |
| 20260506210854 | 56 | 294 | 8.7 | 17.4 | 0.00 | 0.00 | 0.00 | 38 | 1012.4 |
| 20260506210326 | 56 | 266 | 9.6 | 17.4 | 0.00 | 0.00 | 0.00 | 38 | 1012.4 |
| 20260506145331 | 53 | 360 | 4.3 | 9.6 | 0.00 | 0.00 | 0.00 | 38 | 1013.7 |
| 20260506144819 | 53 | 360 | 6.1 | 9.6 | 0.00 | 0.00 | 0.00 | 38 | 1013.7 |
| 20260506144519 | 53 | 267 | 2.6 | 8.7 | 0.00 | 0.00 | 0.00 | 38 | 1013.9 |
| 20260506144335 | 53 | 298 | 2.6 | 8.7 | 0.00 | 0.00 | 0.00 | 38 | 1013.7 |
| 20260506143820 | 53 | 321 | 2.6 | 8.7 | 0.00 | 0.00 | 0.00 | 40 | 1013.8 |
| 20260506143329 | 53 | 311 | 5.2 | 10.4 | 0.00 | 0.00 | 0.00 | 40 | 1013.7 |
| 20260506143053 | 52 | 360 | 3.5 | 11.3 | 0.00 | 0.00 | 0.00 | 38 | 1013.8 |
| 20260506142821 | 53 | 291 | 6.1 | 11.3 | 0.00 | 0.00 | 0.00 | 38 | 1013.7 |
| 20260506142327 | 53 | 360 | 3.5 | 7.8 | 0.00 | 0.00 | 0.00 | 38 | 1013.7 |
| 20260506141829 | 53 | 275 | 3.5 | 7.0 | 0.00 | 0.00 | 0.00 | 40 | 1013.7 |
| 20260506141507 | 53 | 259 | 4.3 | 7.0 | 0.00 | 0.00 | 0.00 | 40 | 1013.8 |
| 20260506141319 | 54 | 229 | 3.5 | 7.0 | 0.00 | 0.00 | 0.00 | 41 | 1013.7 |
| 20260506140823 | 53 | 248 | 1.7 | 7.0 | 0.00 | 0.00 | 0.00 | 42 | 1013.7 |
| 20260506140325 | 53 | 254 | 3.5 | 7.0 | 0.00 | 0.00 | 0.00 | 40 | 1013.7 |
| 20260506140013 | 52 | 319 | 2.6 | 5.2 | 0.00 | 0.03 | 0.00 | 40 | 1013.8 |
| 20260506135833 | 53 | 293 | 3.5 | 5.2 | 0.00 | 0.03 | 0.00 | 40 | 1013.6 |
| 20260506135325 | 53 | 360 | 2.6 | 4.3 | 0.00 | 0.03 | 0.00 | 40 | 1013.6 |
| 20260506134826 | 53 | 265 | 1.7 | 3.5 | 0.00 | 0.03 | 0.00 | 41 | 1013.5 |
| 20260506134550 | 53 | 262 | 0.9 | 3.5 | 0.00 | 0.03 | 0.00 | 42 | 1013.6 |
| 20260506134331 | 53 | 167 | 0.0 | 0.0 | 0.00 | 0.03 | 0.00 | 45 | 1013.4 |
| 20260506133843 | 53 | 119 | 0.0 | 0.0 | 0.00 | 0.03 | 0.00 | 43 | 1013.2 |
| 20260506133351 | 53 | 74 | 0.0 | 0.9 | 0.00 | 0.03 | 0.00 | 45 | 1013.1 |
| 20260506133021 | 52 | 67 | 0.0 | 0.9 | 0.00 | 0.03 | 0.00 | 46 | 1013.3 |
| 20260506132826 | 53 | 67 | 0.0 | 0.9 | 0.00 | 0.03 | 0.00 | 46 | 1013.1 |
| 20260506132319 | 53 | 67 | 0.0 | 1.7 | 0.00 | 0.03 | 0.00 | 43 | 1013.0 |
| 20260506131828 | 53 | 67 | 0.9 | 1.7 | 0.00 | 0.03 | 0.00 | 46 | 1013.0 |
| 20260506131550 | 52 | 67 | 0.9 | 1.7 | 0.00 | 0.03 | 0.00 | 48 | 1013.1 |
| 20260506131330 | 52 | 67 | 0.9 | 1.7 | 0.00 | 0.03 | 0.00 | 49 | 1012.9 |
| 20260506130817 | 51 | 67 | 0.0 | 1.7 | 0.00 | 0.03 | 0.00 | 51 | 1012.9 |
| 20260506130326 | 50 | 55 | 0.0 | 1.7 | 0.00 | 0.03 | 0.00 | 52 | 1013.0 |
| 20260506130059 | 49 | 55 | 0.9 | 1.7 | 0.00 | 0.10 | 0.00 | 54 | 1013.2 |
| 20260506130003 | 49 | 55 | 0.9 | 1.7 | 0.00 | 0.10 | 0.00 | 55 | 1013.2 |
| 20260506125819 | 50 | 52 | 0.9 | 1.7 | 0.00 | 0.10 | 0.00 | 56 | 1013.0 |
| 20260506125350 | 49 | 44 | 0.0 | 1.7 | 0.00 | 0.10 | 0.00 | 58 | 1012.9 |
| 20260506124833 | 48 | 44 | 0.0 | 1.7 | 0.00 | 0.10 | 0.00 | 61 | 1012.8 |
| 20260506124551 | 47 | 44 | 0.0 | 0.0 | 0.00 | 0.10 | 0.00 | 63 | 1013.0 |
| 20260506124335 | 48 | 44 | 0.0 | 0.0 | 0.00 | 0.10 | 0.00 | 64 | 1012.7 |
| 20260506123841 | 47 | 44 | 0.0 | 0.0 | 0.00 | 0.10 | 0.00 | 66 | 1012.7 |
| 20260506123355 | 46 | 44 | 0.0 | 0.0 | 0.00 | 0.10 | 0.00 | 66 | 1012.6 |
| 20260506123011 | 46 | 44 | 0.0 | 0.0 | 0.00 | 0.10 | 0.00 | 67 | 1012.7 |
| 20260506122817 | 46 | 44 | 0.0 | 0.0 | 0.00 | 0.10 | 0.00 | 68 | 1012.6 |
| 20260506122322 | 46 | 44 | 0.0 | 0.0 | 0.00 | 0.10 | 0.00 | 68 | 1012.6 |
| 20260506121830 | 45 | 44 | 0.0 | 0.0 | 0.00 | 0.10 | 0.00 | 68 | 1012.6 |
| 20260506121527 | 45 | 44 | 0.0 | 0.0 | 0.00 | 0.10 | 0.00 | 68 | 1012.6 |
| 20260506121321 | 45 | 44 | 0.0 | 0.0 | 0.00 | 0.10 | 0.00 | 68 | 1012.4 |
| 20260506120826 | 45 | 44 | 0.0 | 0.0 | 0.00 | 0.10 | 0.00 | 68 | 1012.4 |
| 20260506120333 | 45 | 44 | 0.0 | 0.0 | 0.00 | 0.10 | 0.00 | 68 | 1012.4 |
| 20260506120041 | 44 | 44 | 0.0 | 0.0 | 0.00 | 0.12 | 0.00 | 68 | 1012.5 |
| 20260506115819 | 44 | 44 | 0.0 | 0.0 | 0.00 | 0.12 | 0.00 | 69 | 1012.4 |
| 20260506115326 | 44 | 44 | 0.0 | 0.0 | 0.00 | 0.12 | 0.00 | 70 | 1012.4 |
| 20260506114828 | 44 | 44 | 0.0 | 0.0 | 0.00 | 0.12 | 0.00 | 70 | 1012.4 |
| 20260506114552 | 43 | 44 | 0.0 | 0.0 | 0.00 | 0.12 | 0.00 | 70 | 1012.5 |
| 20260506114334 | 44 | 44 | 0.0 | 0.0 | 0.00 | 0.12 | 0.00 | 71 | 1012.3 |
| 20260506113823 | 43 | 44 | 0.0 | 0.0 | 0.00 | 0.12 | 0.00 | 71 | 1012.2 |
| 20260506113321 | 43 | 44 | 0.0 | 0.0 | 0.00 | 0.12 | 0.00 | 70 | 1012.2 |
| 20260506113004 | 42 | 44 | 0.0 | 0.0 | 0.00 | 0.12 | 0.00 | 71 | 1012.3 |
| 20260506112830 | 42 | 44 | 0.0 | 0.0 | 0.00 | 0.12 | 0.00 | 71 | 1012.2 |
| 20260506112328 | 42 | 44 | 0.0 | 0.0 | 0.00 | 0.12 | 0.00 | 71 | 1012.1 |
| 20260506111816 | 42 | 44 | 0.0 | 0.9 | 0.00 | 0.12 | 0.00 | 71 | 1012.1 |
| 20260506111519 | 41 | 44 | 0.0 | 0.9 | 0.00 | 0.12 | 0.00 | 71 | 1012.2 |
| 20260506111319 | 42 | 44 | 0.0 | 0.9 | 0.00 | 0.12 | 0.00 | 71 | 1012.0 |
| 20260506110828 | 41 | 44 | 0.0 | 0.0 | 0.00 | 0.12 | 0.00 | 71 | 1012.0 |
| 20260506110336 | 41 | 44 | 0.0 | 0.0 | 0.00 | 0.12 | 0.00 | 71 | 1012.0 |
| 20260506110033 | 41 | 44 | 0.0 | 0.0 | 0.00 | 0.12 | 0.00 | 71 | 1012.0 |
| 20260506105849 | 41 | 44 | 0.0 | 0.0 | 0.00 | 0.12 | 0.00 | 70 | 1011.9 |
| 20260506105330 | 41 | 44 | 0.0 | 0.0 | 0.00 | 0.12 | 0.00 | 69 | 1011.8 |
| 20260506104839 | 41 | 44 | 0.0 | 0.0 | 0.00 | 0.12 | 0.00 | 69 | 1011.8 |
| 20260506104523 | 41 | 44 | 0.0 | 0.0 | 0.00 | 0.12 | 0.00 | 68 | 1011.8 |
| 20260506104345 | 41 | 44 | 0.0 | 0.0 | 0.00 | 0.12 | 0.00 | 68 | 1011.7 |
| 20260506103826 | 42 | 44 | 0.0 | 0.0 | 0.00 | 0.12 | 0.00 | 67 | 1011.6 |
| 20260506103314 | 42 | 44 | 0.0 | 0.0 | 0.00 | 0.12 | 0.00 | 67 | 1011.4 |
| 20260506103022 | 42 | 44 | 0.0 | 0.0 | 0.00 | 0.12 | 0.00 | 66 | 1011.4 |
| 20260506102819 | 42 | 44 | 0.0 | 0.0 | 0.00 | 0.12 | 0.00 | 66 | 1011.3 |
| 20260506102356 | 43 | 44 | 0.0 | 0.0 | 0.00 | 0.12 | 0.00 | 65 | 1011.2 |
| 20260506101819 | 43 | 44 | 0.0 | 0.0 | 0.00 | 0.12 | 0.00 | 65 | 1011.2 |
| 20260506101505 | 43 | 44 | 0.0 | 0.0 | 0.00 | 0.12 | 0.00 | 65 | 1011.3 |
| 20260506101319 | 44 | 44 | 0.0 | 0.0 | 0.00 | 0.12 | 0.00 | 65 | 1011.1 |
| 20260506100828 | 44 | 44 | 0.0 | 0.9 | 0.00 | 0.12 | 0.00 | 65 | 1011.2 |
| 20260506100334 | 43 | 44 | 0.0 | 0.9 | 0.00 | 0.12 | 0.00 | 66 | 1011.2 |
| 20260506100028 | 43 | 44 | 0.0 | 0.9 | 0.00 | 0.12 | 0.00 | 66 | 1011.3 |
| 20260506095841 | 43 | 44 | 0.0 | 0.9 | 0.00 | 0.12 | 0.00 | 66 | 1011.2 |
| 20260506095348 | 43 | 44 | 0.0 | 0.9 | 0.00 | 0.12 | 0.00 | 65 | 1011.2 |
| 20260506094830 | 44 | 44 | 0.0 | 0.9 | 0.00 | 0.12 | 0.00 | 64 | 1011.2 |
| 20260506094559 | 43 | 44 | 0.0 | 0.9 | 0.00 | 0.12 | 0.00 | 63 | 1011.2 |
| 20260506094501 | 43 | 44 | 0.0 | 0.0 | 0.00 | 0.12 | 0.00 | 63 | 1011.2 |
| 20260506094318 | 44 | 44 | 0.0 | 0.0 | 0.00 | 0.12 | 0.00 | 63 | 1011.1 |
| 20260506093823 | 45 | 44 | 0.0 | 0.0 | 0.00 | 0.12 | 0.00 | 62 | 1011.2 |
| 20260506093329 | 45 | 44 | 0.0 | 0.9 | 0.00 | 0.12 | 0.00 | 61 | 1011.3 |
| 20260506093013 | 45 | 44 | 0.0 | 2.6 | 0.00 | 0.12 | 0.00 | 61 | 1011.4 |
| 20260506092833 | 45 | 44 | 0.0 | 2.6 | 0.00 | 0.12 | 0.00 | 61 | 1011.3 |
| 20260506092321 | 46 | 44 | 0.0 | 2.6 | 0.00 | 0.12 | 0.00 | 61 | 1011.1 |
| 20260506091830 | 46 | 46 | 0.9 | 2.6 | 0.00 | 0.12 | 0.00 | 61 | 1011.0 |
| 20260506091523 | 45 | 44 | 0.0 | 2.6 | 0.00 | 0.12 | 0.00 | 61 | 1011.1 |
| 20260506091336 | 45 | 44 | 0.9 | 2.6 | 0.00 | 0.12 | 0.00 | 61 | 1010.9 |
| 20260506090846 | 45 | 44 | 0.0 | 0.9 | 0.00 | 0.12 | 0.00 | 61 | 1011.1 |
| 20260506090336 | 45 | 44 | 0.0 | 1.7 | 0.00 | 0.12 | 0.00 | 60 | 1011.2 |
| 20260506090010 | 45 | 44 | 0.0 | 1.7 | 0.00 | 0.12 | 0.00 | 59 | 1011.3 |
| 20260506085839 | 46 | 44 | 0.0 | 1.7 | 0.00 | 0.12 | 0.00 | 60 | 1011.3 |